This is the latest recevied weather packets stored in our database for station/object KD8DNS. If no packets are shown the sender has not sent any weather packets the latest 10 day(s).
| Time | Temp. | Humidity | Pressure | Rain* | Wind** | Luminosity | Snow |
|---|---|---|---|---|---|---|---|
| 1788525593 | 24.44° C | 90% | 1019.3 hPa | 0 mm | - | 127 W/m² | - |
| 1788525288 | 23.89° C | 92% | 1019.4 hPa | 0 mm | - | 102 W/m² | - |
| 1788524998 | 23.89° C | 93% | 1019.4 hPa | 0 mm | - | 79 W/m² | - |
| 1788524678 | 23.33° C | 95% | 1019.4 hPa | 0 mm | - | 46 W/m² | - |
| 1788524372 | 23.33° C | 96% | 1019.5 hPa | 0 mm | - | 37 W/m² | - |
| 1788524068 | 22.78° C | 97% | 1019.4 hPa | 0 mm | - | 35 W/m² | - |
| 1788523765 | 22.78° C | 97% | 1019 hPa | 0 mm | - | 31 W/m² | - |
| 1788523460 | 22.78° C | 98% | 1019.2 hPa | 0 mm | - | 29 W/m² | - |
| 1788523155 | 22.22° C | 98% | 1019.2 hPa | 0 mm | - | 27 W/m² | - |
| 1788522851 | 22.22° C | 98% | 1019 hPa | 0 mm | - | 25 W/m² | - |
| 1788522545 | 22.22° C | 99% | 1019 hPa | 0 mm | - | 21 W/m² | - |
| 1788522240 | 22.22° C | 99% | 1018.8 hPa | 0 mm | - | 19 W/m² | - |
| 1788521935 | 21.67° C | 99% | 1019.1 hPa | 0 mm | - | 16 W/m² | - |
| 1788521634 | 21.67° C | 98% | 1018.8 hPa | 0 mm | - | 13 W/m² | - |
| 1788521329 | 21.67° C | 99% | 1019 hPa | 0 mm | - | 10 W/m² | - |
| 1788521024 | 21.67° C | 99% | 1018.9 hPa | 0 mm | - | 8 W/m² | - |
| 1788520720 | 21.67° C | 99% | 1018.4 hPa | 0 mm | - | 5 W/m² | - |
| 1788520416 | 21.67° C | 98% | 1018.5 hPa | 0 mm | - | 3 W/m² | - |
| 1788520111 | 21.67° C | 98% | 1018.5 hPa | 0 mm | - | 1 W/m² | - |
| 1788519810 | 21.67° C | 98% | 1018.5 hPa | 0 mm | - | 0 W/m² | - |
| 1788519510 | 21.67° C | 98% | 1018.5 hPa | 0 mm | - | 0 W/m² | - |
| 1788519205 | 21.67° C | 98% | 1018 hPa | 0 mm | - | 0 W/m² | - |
| 1788518900 | 21.67° C | 98% | 1018.3 hPa | 0 mm | - | 0 W/m² | - |
| 1788518596 | 21.67° C | 98% | 1018 hPa | 0 mm | - | 0 W/m² | - |
| 1788518293 | 21.67° C | 98% | 1018 hPa | 0 mm | - | 0 W/m² | - |
* Rain latest hour (hover to see other rain measurements)
** Current wind speed in m/s (hover to see current wind gust speed)